Home   Weather   Umm al-Quwain   Past weeks
Flag for United Arab Emirates

Past Weather in Umm al-Quwain, Umm al-Quwain, United Arab Emirates — Yesterday and Last 2 Weeks

Now
111 °F

Passing clouds.


Feels Like: 107 °F
Forecast: 99 / 81 °F
Wind: 7 mph from West

Location: Sharjah International Airport

Current Time: May 27, 2019 at 1:33:50 pm

Latest Report: May 27, 2019 at 1:00 pm


Visibility: N/A

Pressure: 29.68 "Hg

Humidity: 12%

Dew Point: 48 °F

Location of Umm al-QuwainLocation

Past Weather in Umm al-Quwain — Graph

°F

Umm al-Quwain Temperature Yesterday

Maximum temperature yesterday: 109 °F (at 1:00 pm)
Minimum temperature yesterday: 77 °F (at 4:00 am)
Average temperature yesterday: 92 °F

High & Low Weather Summary for the Past Weeks

 TemperatureHumidityPressure
High109 °F (May 26, 1:00 pm)84% (May 21, 6:00 am)29.86 "Hg (May 21, 6:00 am)
Low72 °F (May 25, 5:00 am)6% (May 12, 2:00 pm)29.65 "Hg (May 14, 4:00 pm)
Average89 °F41%29.73 "Hg
* Reported May 12 12:00 pm — May 27 12:00 pm, Umm al-Quwain. Weather by CustomWeather, © 2019

Note: Actual official high and low records may vary slightly from our data, if they occured in-between our weather recording intervals... More about our weather records

Advertising

Umm al-Quwain Weather History for the Previous 24 Hours

Scroll right to see more
 ConditionsComfort  
Time TempWeatherWind HumidityBarometerVisibility
12:00 pm
Mon, May 27
109 °FSunny.10 mph12%29.71 "Hg10 mi
11:00 am108 °FSunny.14 mph15%29.71 "Hg10 mi
10:00 am106 °FSunny.15 mph11%29.74 "Hg10 mi
9:00 am102 °FSunny.16 mph15%29.74 "Hg10 mi
8:00 am97 °FSunny.12 mph25%29.74 "Hg10 mi
7:00 am90 °FSunny.12 mph27%29.71 "Hg10 mi
6:00 am84 °FSunny.14 mph45%29.68 "Hg10 mi
5:00 am79 °FClear.7 mph65%29.68 "Hg10 mi
4:00 am77 °FClear.8 mph74%29.65 "Hg10 mi
3:00 am82 °FClear.3 mph62%29.65 "Hg10 mi
2:00 am82 °FClear.3 mph62%29.65 "Hg10 mi
1:00 am82 °FClear.6 mph58%29.68 "Hg10 mi
12:00 am84 °FClear.2 mph58%29.68 "Hg10 mi
11:00 pm
Sun, May 26
88 °FClear.1 mph52%29.71 "Hg10 mi
10:00 pm90 °FClear.3 mph49%29.71 "Hg10 mi
9:00 pm90 °FClear.7 mph49%29.68 "Hg10 mi
8:00 pm91 °FClear.9 mph49%29.68 "Hg10 mi
7:00 pm93 °FSunny.7 mph44%29.68 "Hg10 mi
6:00 pm95 °FSunny.12 mph39%29.65 "Hg10 mi
5:00 pm97 °FSunny.16 mph37%29.65 "Hg10 mi
4:00 pm104 °FSunny.15 mph17%29.65 "Hg10 mi
3:00 pm106 °FSunny.15 mph14%29.65 "Hg10 mi
2:00 pm109 °FPassing clouds.13 mph12%29.68 "HgN/A
1:00 pm109 °FSunny.5 mph10%29.71 "Hg10 mi
Weather by CustomWeather, © 2019

See weather overview